sat.trackr.live / text

‹ back to catalog

STARLINK-5002

NORAD 53922 · 2022-119AN

PAYLOAD ACTIVE UNKNOWN

§ Identity

Operator
Country
US
Launch date
2022-09-24
Launch site
AFETR
Launch vehicle
Mass (kg)
RCS (m²)

Purposes: comms

External: N2YO · Heavens-Above · Gunter

§ Orbital elements

Epoch: 2026-09-20T22:24:42.186240Z

Period
95.44 min
Inclination
53.1603°
Eccentricity
0.0001885
Mean motion
15.08832547 rev/d
Perigee alt
538.5 km
Apogee alt
541.1 km
Semi-major
6,917.9 km
B*
2.1760e-5
RAAN
156.7195°
Arg perigee
96.5534°
Mean anomaly
263.5672°
Rev number
22,130

§ Raw data

STARLINK-50021 53922U 22119AN  26263.93382160  .00000058  00000+0  21760-4 0  99992 53922  53.1603 156.7195 0001885  96.5534 263.5672 15.08832547221301

JSON: /api/v1/satellites/53922 · /tle

For live sub-satellite position, see the globe view (requires WebGL).

§ Visibility from observer

Set your observer location to see the next 7 days of passes ≥ 10°. The values pass through the URL so the page stays shareable.

No JS? Fill the form by hand. The geolocation button needs JavaScript.